This demonstration page uses our WeatherBlox Daily Observations layout. Learn more.

Left ArrowRight Arrow

Hourly Observations for July 9, 2016

Temp ( °F °C ) Dew Point ( °F °C ) Humidity (%) Winds ( mph kmh ) Pressure ( in mb ) Visibility ( mi km ) Precip ( " mm )
12:58 am 00:58 Mostly Cloudy 72 22.4 70 21.2 93 93 NE 6 9 30.03 1017 10 16 0.00 0.00
1:58 am 01:58 Clear 72 22 69 20.5 91 91 NE 2 4 30.01 1016 10 16 0.00 0.00
2:58 am 02:58 Clear 69 20.8 68 19.9 95 95 NE 5 7 30.00 1016 10 16 0.00 0.00
3:58 am 03:58 Clear 70 21.3 67 19.2 88 88 NE 3 6 30.00 1016 10 16 0.00 0.00
4:58 am 04:58 Partly Cloudy 69 20.8 67 19.6 93 93 ENE 3 6 30.03 1017 10 16 0.00 0.00
5:58 am 05:58 Clear 69 20.8 64 17.8 83 83 ENE 3 6 30.03 1017 10 16 0.00 0.00
6:58 am 06:58 Mostly Sunny 70 21.2 63 17.3 79 79 SSE 3 6 30.04 1017 10 16 0.00 0.00
7:58 am 07:58 Mostly Cloudy 72 22 65 18.2 79 79 SSE 5 7 30.04 1017 10 16 0.00 0.00
8:58 am 08:58 Mostly Cloudy 73 22.8 65 18.2 75 75 ESE 12 19 30.04 1017 10 16 0.00 0.00
9:58 am 09:58 Sunny 75 24.1 65 18.4 71 71 ESE 9 15 30.04 1017 10 16 0.00 0.00
10:58 am 10:58 Sunny 80 26.5 66 19 63 63 ESE 12 19 30.03 1017 10 16 0.00 0.00
11:58 am 11:58 Sunny 81 27.4 67 19.5 62 62 SE 12 19 30.03 1017 10 16 0.00 0.00
12:58 pm 12:58 Mostly Sunny 83 28.2 68 20.2 62 62 SE 14 22 30.03 1017 10 16 0.00 0.00
1:58 pm 13:58 Mostly Sunny 84 28.8 71 21.4 64 64 ESE 12 19 30.01 1016 10 16 0.00 0.00
2:58 pm 14:58 Mostly Sunny 85 29.3 72 22 65 65 ESE 13 20 30.01 1016 10 16 0.00 0.00
3:58 pm 15:58 Partly Cloudy 85 29.5 73 22.9 68 68 ESE 13 20 30.00 1016 10 16 0.00 0.00
4:58 pm 16:58 Sunny 86 29.9 73 22.7 65 65 ESE 13 20 29.96 1015 10 16 0.00 0.00
5:58 pm 17:58 Sunny 85 29.7 74 23.1 68 68 ESE 13 20 29.96 1014 10 16 0.00 0.00
6:58 pm 18:58 Sunny 85 29.2 73 22.8 68 68 ESE 13 20 29.94 1014 10 16 0.00 0.00
7:58 pm 19:58 Sunny 83 28.2 73 23 73 73 ESE 12 19 29.93 1013 10 16 0.00 0.00
8:58 pm 20:58 Clear 80 26.6 73 22.9 80 80 ESE 9 15 29.93 1013 10 16 0.00 0.00
9:58 pm 21:58 Clear 78 25.8 73 22.5 82 82 ESE 9 15 29.94 1014 10 16 0.00 0.00
10:58 pm 22:58 Clear 78 25.3 72 22.4 84 84 SE 10 17 29.93 1014 10 16 0.00 0.00
11:58 pm 23:58 Clear 77 25 72 22.1 84 84 SE 10 17 29.91 1013 10 16 0.00 0.00

Powered by AerisWeather